| Date | Time | Temp. (oF) | Dew Point (oF) | Rel. Hum. (%) | Press. (in.) | Wind Dir. | Wind Speed (mph) | Hourly Rainfall (in.) |
|
|---|---|---|---|---|---|---|---|---|---|
| 1 | 04/08 | 00:00 | 45 | 39 | 82 | 30.32 | NE | 3 | 0.00 |
| 2 | 04/07 | 23:00 | 45 | 40 | 83 | 30.32 | N | 2 | 0.00 |
| 3 | 04/07 | 22:00 | 45 | 40 | 84 | 30.30 | ESE | 2 | 0.00 |
| 4 | 04/07 | 21:00 | 45 | 40 | 83 | 30.29 | ESE | 3 | 0.00 |
| 5 | 04/07 | 20:00 | 45 | 39 | 82 | 30.28 | ESE | 3 | 0.00 |
| 6 | 04/07 | 19:00 | 45 | 39 | 81 | 30.28 | E | 6 | 0.00 |
| 7 | 04/07 | 18:00 | 46 | 39 | 79 | 30.26 | ESE | 3 | 0.00 |
| 8 | 04/07 | 17:00 | 46 | 39 | 78 | 30.26 | SSE | 4 | 0.00 |
| 9 | 04/07 | 16:00 | 47 | 39 | 76 | 30.27 | E | 7 | 0.00 |
| 10 | 04/07 | 15:00 | 47 | 39 | 76 | 30.28 | ESE | 6 | 0.00 |
| 11 | 04/07 | 14:00 | 47 | 40 | 77 | 30.29 | SE | 3 | 0.00 |
| 12 | 04/07 | 13:00 | 46 | 39 | 77 | 30.29 | ESE | 6 | 0.00 |
| 13 | 04/07 | 12:00 | 45 | 38 | 79 | 30.30 | ENE | 6 | 0.00 |
| 14 | 04/07 | 11:00 | 44 | 38 | 80 | 30.31 | ESE | 4 | 0.00 |
| 15 | 04/07 | 10:00 | 43 | 36 | 79 | 30.30 | NE | 8 | 0.00 |
| 16 | 04/07 | 09:00 | 42 | 36 | 80 | 30.29 | ENE | 4 | 0.00 |
| 17 | 04/07 | 08:00 | 41 | 36 | 83 | 30.28 | ENE | 14 | 0.00 |
| 18 | 04/07 | 07:00 | 41 | 37 | 86 | 30.27 | ESE | 5 | 0.00 |
| 19 | 04/07 | 06:00 | 41 | 36 | 85 | 30.27 | SE | 5 | 0.00 |
| 20 | 04/07 | 05:00 | 42 | 36 | 82 | 30.27 | E | 7 | 0.00 |
| 21 | 04/07 | 04:00 | 43 | 37 | 82 | 30.26 | SE | 8 | 0.00 |
| 22 | 04/07 | 03:00 | 43 | 37 | 80 | 30.25 | ESE | 2 | 0.00 |
| 23 | 04/07 | 02:00 | 44 | 37 | 77 | 30.25 | NE | 5 | 0.00 |
| 24 | 04/07 | 01:00 | 45 | 38 | 77 | 30.24 | N | 7 | 0.00 |